Location: Unspecified
(0.0000°N, 0.0000°E)
Time: 07:27:34
(UTC+00:00)

XW-2C - Pass Details

Date: 15 December 2017
Orbit: 510 x 531 km, 97.5° (Epoch: 23 June)

Event Time Altitude Azimuth Distance (km) Brightness Sun altitude
Rises 05:03:28 0° 36° (NE) 2,659 ? -11.8°
Reaches altitude 10° 05:06:00 10° 53° (NE) 1,770 ? -11.3°
Maximum altitude 05:08:50 20° 101° (E) 1,257 ? -10.6°
Drops below altitude 10° 05:11:40 10° 150° (SSE) 1,769 ? -10.0°
Sets 05:14:11 0° 167° (SSE) 2,656 ? -9.4°
